EN

Hourly Weather Bolshoe Loshakovo

Today, 20 October, Tuesday

Time Temperature Precipitation Wind Pressure Humidity
00:00 0°C° 0.2 mm 4 mps 739 mmHg 89%
01:00 -1°C° 0.2 mm 4 mps 740 mmHg 87%
02:00 -1°C° 0 mm 4 mps 740 mmHg 86%
03:00 -1°C° 0 mm 4 mps 740 mmHg 86%
04:00 0°C° 0 mm 3 mps 740 mmHg 87%
05:00 0°C° 0 mm 3 mps 741 mmHg 87%
06:00 0°C° 0.2 mm 3 mps 741 mmHg 89%
07:00 0°C° 0.2 mm 3 mps 741 mmHg 92%
08:00 -1°C° 0 mm 4 mps 742 mmHg 95%
09:00 0°C° 0.1 mm 4 mps 743 mmHg 90%
10:00 0°C° 0.1 mm 4 mps 743 mmHg 85%
11:00 0°C° 0.1 mm 4 mps 744 mmHg 81%
12:00 0°C° 0.1 mm 4 mps 745 mmHg 82%
13:00 0°C° 0.1 mm 4 mps 746 mmHg 84%
14:00 0°C° 0.1 mm 4 mps 747 mmHg 86%
15:00 0°C° 0.1 mm 4 mps 747 mmHg 88%
16:00 0°C° 0.1 mm 4 mps 748 mmHg 89%
17:00 -1°C° 0.1 mm 4 mps 748 mmHg 91%
18:00 0°C° 0.1 mm 3 mps 749 mmHg 90%
19:00 0°C° 0.1 mm 3 mps 749 mmHg 90%
20:00 -1°C° 0.1 mm 3 mps 750 mmHg 89%
21:00 -1°C° 0 mm 3 mps 750 mmHg 89%
22:00 -1°C° 0 mm 3 mps 750 mmHg 89%
23:00 -2°C° 0 mm 3 mps 750 mmHg 89%

Tomorrow, 21 October, Wednesday

Time Temperature Precipitation Wind Pressure Humidity
00:00 -2°C° 0 mm 2 mps 750 mmHg 89%
01:00 -2°C° 0 mm 2 mps 751 mmHg 90%
02:00 -2°C° 0 mm 2 mps 751 mmHg 90%
03:00 -2°C° 0 mm 2 mps 751 mmHg 90%
04:00 -2°C° 0 mm 2 mps 751 mmHg 90%
05:00 -2°C° 0 mm 2 mps 751 mmHg 91%
06:00 -2°C° 0 mm 2 mps 751 mmHg 90%
07:00 +1°C° 0 mm 1 mps 751 mmHg 89%
08:00 +1°C° 0 mm 1 mps 751 mmHg 88%
09:00 +2°C° 0 mm 1 mps 750 mmHg 84%
10:00 +3°C° 0 mm 1 mps 750 mmHg 79%
11:00 +4°C° 0 mm 1 mps 750 mmHg 74%
12:00 +4°C° 0 mm 1 mps 750 mmHg 74%
13:00 +4°C° 0 mm 1 mps 750 mmHg 73%
14:00 +4°C° 0 mm 1 mps 750 mmHg 73%
15:00 +4°C° 0 mm 1 mps 750 mmHg 79%
16:00 +3°C° 0 mm 1 mps 749 mmHg 85%
17:00 +2°C° 0 mm 1 mps 749 mmHg 91%
18:00 +2°C° 0 mm 1 mps 749 mmHg 93%
19:00 +2°C° 0 mm 1 mps 749 mmHg 95%
20:00 +2°C° 0 mm 1 mps 749 mmHg 96%
21:00 +2°C° 0 mm 1 mps 749 mmHg 96%
22:00 +2°C° 0 mm 2 mps 749 mmHg 97%
23:00 +2°C° 0 mm 2 mps 749 mmHg 97%

Day after tomorrow, 22 October, Thursday

Time Temperature Precipitation Wind Pressure Humidity
00:00 +2°C° 0 mm 2 mps 749 mmHg 97%
01:00 +2°C° 0 mm 2 mps 749 mmHg 97%
02:00 +3°C° 0 mm 1 mps 749 mmHg 96%
03:00 +2°C° 0 mm 2 mps 748 mmHg 96%
04:00 +3°C° 0 mm 2 mps 748 mmHg 95%
05:00 +2°C° 0 mm 3 mps 748 mmHg 95%
06:00 +2°C° 0 mm 3 mps 747 mmHg 94%
07:00 +2°C° 0 mm 3 mps 747 mmHg 94%
08:00 +2°C° 0 mm 3 mps 747 mmHg 93%
09:00 +3°C° 0 mm 3 mps 747 mmHg 91%
10:00 +3°C° 0 mm 3 mps 746 mmHg 89%
11:00 +4°C° 0 mm 3 mps 746 mmHg 87%
12:00 +4°C° 0 mm 3 mps 745 mmHg 87%
13:00 +4°C° 0 mm 4 mps 745 mmHg 88%
14:00 +4°C° 0 mm 4 mps 744 mmHg 88%
15:00 +4°C° 0.4 mm 4 mps 744 mmHg 90%
16:00 +4°C° 0.4 mm 4 mps 743 mmHg 92%
17:00 +4°C° 0.4 mm 4 mps 742 mmHg 93%
18:00 +5°C° 0.9 mm 4 mps 742 mmHg 94%
19:00 +5°C° 0.9 mm 4 mps 741 mmHg 94%
20:00 +5°C° 0.9 mm 4 mps 741 mmHg 94%
21:00 +6°C° 1.2 mm 4 mps 740 mmHg 95%
22:00 +7°C° 1.2 mm 3 mps 740 mmHg 96%
23:00 +7°C° 1.2 mm 3 mps 740 mmHg 97%

23 October, Friday

Time Temperature Precipitation Wind Pressure Humidity
00:00 +8°C° 0.4 mm 3 mps 740 mmHg 95%
01:00 +8°C° 0.4 mm 4 mps 740 mmHg 94%
02:00 +10°C° 0.4 mm 4 mps 740 mmHg 92%
03:00 +10°C° 0.1 mm 4 mps 740 mmHg 92%
04:00 +10°C° 0.1 mm 4 mps 739 mmHg 91%
05:00 +11°C° 0.1 mm 4 mps 739 mmHg 91%
06:00 +10°C° 0 mm 4 mps 739 mmHg 90%
07:00 +10°C° 0 mm 4 mps 739 mmHg 89%
08:00 +10°C° 0 mm 4 mps 739 mmHg 87%
09:00 +11°C° 0.2 mm 4 mps 738 mmHg 88%
10:00 +11°C° 0.2 mm 4 mps 738 mmHg 88%
11:00 +11°C° 0.2 mm 4 mps 738 mmHg 88%
12:00 +11°C° 1.2 mm 4 mps 737 mmHg 90%
13:00 +11°C° 1.2 mm 4 mps 737 mmHg 91%
14:00 +11°C° 1.2 mm 4 mps 736 mmHg 92%
15:00 +11°C° 0.4 mm 3 mps 736 mmHg 92%
16:00 +11°C° 0.4 mm 3 mps 735 mmHg 93%
17:00 +11°C° 0.4 mm 3 mps 735 mmHg 93%
18:00 +11°C° 0.7 mm 3 mps 735 mmHg 91%
19:00 +11°C° 0.7 mm 4 mps 735 mmHg 90%
20:00 +11°C° 0.7 mm 4 mps 735 mmHg 89%
21:00 +10°C° 0.1 mm 4 mps 735 mmHg 89%
22:00 +8°C° 0.1 mm 4 mps 735 mmHg 90%
23:00 +8°C° 0.1 mm 4 mps 735 mmHg 91%

24 October, Saturday

Time Temperature Precipitation Wind Pressure Humidity
00:00 +8°C° 0 mm 4 mps 736 mmHg 89%
01:00 +8°C° 0 mm 4 mps 736 mmHg 88%
02:00 +8°C° 0 mm 5 mps 736 mmHg 87%
03:00 +8°C° 0 mm 5 mps 737 mmHg 86%
04:00 +7°C° 0 mm 4 mps 738 mmHg 85%
05:00 +7°C° 0 mm 4 mps 738 mmHg 83%
06:00 +6°C° 0 mm 4 mps 739 mmHg 81%
07:00 +6°C° 0 mm 4 mps 739 mmHg 79%
08:00 +5°C° 0 mm 4 mps 740 mmHg 77%
09:00 +5°C° 0 mm 4 mps 740 mmHg 75%
10:00 +5°C° 0 mm 4 mps 741 mmHg 73%
11:00 +5°C° 0 mm 4 mps 742 mmHg 71%
12:00 +5°C° 0 mm 3 mps 742 mmHg 71%
13:00 +5°C° 0 mm 3 mps 742 mmHg 70%
14:00 +5°C° 0 mm 3 mps 742 mmHg 70%
15:00 +5°C° 0 mm 2 mps 742 mmHg 75%
16:00 +4°C° 0 mm 2 mps 742 mmHg 80%
17:00 +4°C° 0 mm 1 mps 742 mmHg 84%
18:00 +4°C° 0 mm 1 mps 742 mmHg 86%
19:00 +2°C° 0 mm 0 mps 743 mmHg 88%
20:00 +2°C° 0 mm 0 mps 743 mmHg 90%
21:00 +2°C° 0 mm 0 mps 743 mmHg 90%
22:00 +1°C° 0 mm 0 mps 743 mmHg 91%
23:00 +1°C° 0 mm 0 mps 743 mmHg 92%

25 October, Sunday

Time Temperature Precipitation Wind Pressure Humidity
00:00 +1°C° 0 mm 0 mps 743 mmHg 92%
01:00 +1°C° 0 mm 0 mps 743 mmHg 93%
02:00 0°C° 0 mm 0 mps 743 mmHg 93%
03:00 0°C° 0 mm 0 mps 743 mmHg 93%
04:00 0°C° 0 mm 0 mps 743 mmHg 94%
05:00 +1°C° 0 mm 1 mps 744 mmHg 94%
06:00 +2°C° 0 mm 1 mps 744 mmHg 93%
07:00 +2°C° 0 mm 1 mps 744 mmHg 92%
08:00 +2°C° 0 mm 1 mps 744 mmHg 91%
09:00 +3°C° 0 mm 1 mps 745 mmHg 88%
10:00 +3°C° 0 mm 1 mps 745 mmHg 84%
11:00 +4°C° 0 mm 1 mps 745 mmHg 80%
12:00 +4°C° 0 mm 1 mps 746 mmHg 79%
13:00 +4°C° 0 mm 1 mps 746 mmHg 78%
14:00 +4°C° 0 mm 2 mps 746 mmHg 78%
15:00 +4°C° 0 mm 1 mps 746 mmHg 82%
16:00 +3°C° 0 mm 1 mps 747 mmHg 87%
17:00 +2°C° 0 mm 1 mps 747 mmHg 91%
18:00 +2°C° 0 mm 1 mps 747 mmHg 91%
19:00 +2°C° 0 mm 1 mps 748 mmHg 90%
20:00 +2°C° 0 mm 1 mps 748 mmHg 90%
21:00 +2°C° 0 mm 1 mps 748 mmHg 90%
22:00 +2°C° 0 mm 1 mps 749 mmHg 90%
23:00 +2°C° 0 mm 1 mps 749 mmHg 90%

26 October, Monday

Time Temperature Precipitation Wind Pressure Humidity
00:00 +1°C° 0 mm 2 mps 749 mmHg 91%
01:00 +1°C° 0 mm 2 mps 749 mmHg 93%
02:00 -1°C° 0 mm 2 mps 749 mmHg 95%
03:00 -1°C° 0 mm 2 mps 750 mmHg 96%
04:00 -1°C° 0 mm 2 mps 750 mmHg 96%
05:00 -1°C° 0 mm 2 mps 750 mmHg 96%
06:00 -1°C° 0 mm 2 mps 750 mmHg 96%
07:00 +1°C° 0 mm 1 mps 751 mmHg 95%
08:00 +2°C° 0 mm 1 mps 751 mmHg 95%
09:00 +3°C° 0 mm 1 mps 751 mmHg 91%
10:00 +4°C° 0 mm 1 mps 751 mmHg 86%
11:00 +5°C° 0 mm 1 mps 751 mmHg 82%
12:00 +5°C° 0 mm 1 mps 751 mmHg 82%
13:00 +6°C° 0 mm 1 mps 752 mmHg 81%
14:00 +5°C° 0 mm 2 mps 752 mmHg 80%
15:00 +5°C° 0 mm 2 mps 751 mmHg 84%
16:00 +4°C° 0 mm 2 mps 751 mmHg 87%
17:00 +4°C° 0 mm 2 mps 751 mmHg 91%
18:00 +4°C° 0 mm 2 mps 752 mmHg 91%
19:00 +4°C° 0 mm 2 mps 752 mmHg 91%
20:00 +3°C° 0 mm 2 mps 752 mmHg 92%
21:00 +3°C° 0 mm 2 mps 752 mmHg 92%
22:00 +3°C° 0 mm 2 mps 752 mmHg 93%
23:00 +3°C° 0 mm 2 mps 752 mmHg 94%
Show more